FENGYUN 1C DEB, 37432

Orbit data source: Space-Track

FENGYUN 1C DEB, 37432 is space debris in SSO originally from a launch on Mon, 10 May 1999 UTC launched from the Taiyaun Space Center, China (TSC). Fengyun 1C debris stems from the Chinese weather satellite Fengyun-1C, which was intentionally destroyed by a Chinese anti-satellite missile in 2007. This event dramatically increased the amount of space debris, with thousands of trackable fragments posing hazards to satellites and human spaceflight. The Fengyun 1C debris cloud has become a focal point in discussions about space sustainability and the need for international regulations to prevent the creation of new debris.

Loading next visibility...
Identifier
37432, 1999-025EHA
Orbit
SSO
Country
Flag of CNCN / PRC
Related business
Manufacturer
Unknown
Mission
Spacecraft
Bus & Motor
Unknown
Mass
Unknown
Launch date (UTC)
1999-05-10 (27 years ago)
Launch vehicle
Unknown
Launch site
Taiyaun Space Center, China (TSC)
Object type
Payload
Rocket body
Debris
Shape & HBR
Unknown shape, 0.1 m
Radar Cross Section
Small (<0.1 m²)

Expand to show TLE details & history
Last TLE update: 1 day ago

TLE from 1 day ago
0 FENGYUN 1C DEB
1 37432U 99025EHA 25312.28702562  .00006709  00000-0  13066-2 0  9999
2 37432  98.1869 326.3458 0185289  34.6230 326.6868 14.52952264 78761
Epoch: 2025-11-08T06:53Z
TLE epoch observation values (Epoch: 2025-11-08T06:53:19.013Z)
Latitude
-0.00002°
Longitude
175.29778°
Altitude
609.881 km
Speed
7.612 km/s
True Right ascension
21h 45m 22s
True Declination
0° 00' 00"
Sunlit
Object was in daylight at epoch
Visualization orbit readout
Latitude
Unknown
Longitude
Unknown
Altitude
Unknown
Speed
Unknown
Apparent Right ascension
Unknown
Apparent Declination
Unknown
Sunlit
N/A
Visualization observer readout
Local Sidereal Time
07:41:10
Azimuth
Unknown
Elevation
Unknown
Doppler factor
Unknown
Orbital elements
Apogee altitude
844.504 km
Perigee altitude
581.718 km
Semi-major axis
7,091.248 km
Eccentricity
0.01853
Inclination
98.1869°
RAAN
326.3458°
Arg. of periapsis
34.623°
True anomaly
325.49776°
Mean anomaly
326.6868°
Eccentric anomaly
326.0946°
Mean motion
3.63462 °/min
Orbital period
99.05 mins
BSTAR
0.0013066
Loading maneuver chart data...
Computing Atmospheric mass density...

Documentation

Showing up to 5 results
|